Content
SEND FEEDBACK

Daily
Averages
Monthly
Summary
Turkey

ADIYAMAN, TURKEY


Home > Middle East > Turkey
Elevation: 2224 feet     Latitude: 37 48N     Longitude: 038 18E

WEATHER
 
SELECT A DAY
Number of Records: 142,215;   Date Range: 7/1/96 - 7/29/14
 
SHARE

PRINT THIS DATA

[ ← Previous Day ]
WEATHER ALMANAC - JANUARY 21, 2013
[ Next Day → ]
[ °C ]   °F
Weather ElementAverageHighLow
Temperature34.6 °F44.6 °F (12:20 pm)24.8 °F (7:20 am)
Dewpoint31.5 °F35.6 °F (8:50 pm)24.8 °F (7:20 am)
Humidity89.4 %100 % (12:50 am)61 % (12:20 pm)
Barometer30.22 in30.24 in (7:50 am)30.18 in (12:50 am)
Wind Speed3.5 mph9.2 mph (3:20 am)
Weather ElementAverage
Visibility6.2 mi
Wind DirectionSSE (156.4 °)

Weather ElementTotal
Precipitation---
Heating Degree Days30.3 (Base 65)
Averaged from 47 records on January 21, 2013
WEATHER CONDITIONS BREAKOUT
WIND DIRECTION BREAKOUT
WEATHER BY HOUR - JANUARY 21, 2013
[ °C ]   °F
Local TimeTemperatureDewpointHumidityBarometerVisibilityWind DirectionWind SpeedGust SpeedPrecipitationEventsConditions
12:50 AM30.2 °F30.2 °F100 %30.18 in6.2 miSSW (210°)5.8 mphMostly Cloudy
1:20 AM30.2 °F30.2 °F100 %30.18 in6.2 miSSW (210°)4.6 mphMostly Cloudy
1:50 AM30.2 °F30.2 °F100 %30.18 in6.2 miVariable2.3 mphScattered Clouds
2:20 AM30.2 °F30.2 °F100 %30.18 in6.2 miWSW (250°)3.5 mphScattered Clouds
2:50 AM28.4 °F26.6 °F93 %30.18 in6.2 miWSW (250°)2.3 mphScattered Clouds
3:20 AM28.4 °F28.4 °F100 %30.18 in6.2 miSW (220°)9.2 mphScattered Clouds
3:50 AM30.2 °F30.2 °F100 %30.18 in6.2 miVariable2.3 mphScattered Clouds
4:20 AM30.2 °F30.2 °F100 %30.18 in6.2 miSouth (190°)4.6 mphScattered Clouds
4:50 AM30.2 °F30.2 °F100 %30.18 in6.2 miWSW (240°)6.9 mphScattered Clouds
5:20 AM30.2 °F30.2 °F100 %30.18 in6.2 miVariable2.3 mphScattered Clouds
5:50 AM28.4 °F28.4 °F100 %30.21 in6.2 miVariable2.3 mphScattered Clouds
6:20 AM26.6 °F26.6 °F100 %30.21 in5.0 miSW (220°)4.6 mphScattered Clouds
6:50 AM26.6 °F26.6 °F100 %30.21 in6.2 miNNW (340°)4.6 mphScattered Clouds
7:20 AM24.8 °F24.8 °F100 %30.21 in6.2 miSW (230°)4.6 mphScattered Clouds
7:50 AM28.4 °F28.4 °F100 %30.24 in6.2 miWSW (250°)2.3 mphScattered Clouds
8:20 AM32.0 °F30.2 °F93 %30.24 in6.2 miNorth (350°)2.3 mphScattered Clouds
8:50 AM35.6 °F30.2 °F81 %30.24 in6.2 miNNW (340°)3.5 mphPartly Cloudy
9:20 AM35.6 °F32.0 °F87 %30.24 in6.2 miNorth (10°)2.3 mphPartly Cloudy
9:50 AM37.4 °F30.2 °F75 %30.24 in6.2 miVariable2.3 mphPartly Cloudy
10:20 AM37.4 °F32.0 °F81 %30.24 in6.2 miNNE (30°)4.6 mphPartly Cloudy
10:50 AM37.4 °F32.0 °F81 %30.24 in6.2 miNNE (30°)4.6 mphPartly Cloudy
11:20 AM39.2 °F32.0 °F75 %30.24 in6.2 miNNE (30°)3.5 mphPartly Cloudy
11:50 AM41.0 °F32.0 °F70 %30.24 in6.2 miESE (110°)2.3 mphPartly Cloudy
12:20 PM44.6 °F32.0 °F61 %30.24 in6.2 miVariable2.3 mphPartly Cloudy
12:50 PM42.8 °F32.0 °F66 %30.21 in6.2 miWNW (300°)2.3 mphPartly Cloudy
1:20 PM42.8 °F32.0 °F66 %30.21 in6.2 miVariable2.3 mphPartly Cloudy
1:50 PM42.8 °F32.0 °F66 %30.21 in6.2 miWest (270°)2.3 mphPartly Cloudy
2:20 PM42.8 °F33.8 °F70 %30.21 in6.2 miVariable2.3 mphPartly Cloudy
2:50 PM42.8 °F33.8 °F70 %30.21 in6.2 miWSW (240°)3.5 mphPartly Cloudy
3:20 PM42.8 °F33.8 °F70 %30.21 in6.2 miSW (220°)3.5 mphPartly Cloudy
3:50 PM41.0 °F33.8 °F76 %30.21 in6.2 miSSW (200°)3.5 mphPartly Cloudy
4:20 PM37.4 °F32.0 °F81 %30.21 in6.2 miSSW (210°)4.6 mphPartly Cloudy
4:50 PM35.6 °F32.0 °F87 %30.21 in6.2 miSW (230°)5.8 mphPartly Cloudy
5:20 PM33.8 °F30.2 °F87 %30.21 in6.2 miSW (230°)4.6 mphPartly Cloudy
5:50 PM32.0 °F30.2 °F93 %30.24 in6.2 miSW (230°)6.9 mphPartly Cloudy
6:20 PM30.2 °F30.2 °F100 %30.24 in6.2 miSW (230°)4.6 mphPartly Cloudy
6:50 PM32.0 °F32.0 °F100 %30.24 in6.2 miSSW (210°)4.6 mphMostly Cloudy
7:20 PM35.6 °F33.8 °F93 %30.24 in6.2 miSSW (210°)6.9 mphMostly Cloudy
7:50 PM35.6 °F33.8 °F93 %30.24 in6.2 miSSW (210°)5.8 mphMostly Cloudy
8:20 PM35.6 °F33.8 °F93 %30.24 in6.2 miSouth (190°)3.5 mphMostly Cloudy
8:50 PM35.6 °F35.6 °F100 %30.24 in6.2 miSSW (210°)3.5 mphMostly Cloudy
9:20 PM35.6 °F35.6 °F100 %30.24 in6.2 miCalmMostly Cloudy
9:50 PM35.6 °F35.6 °F100 %30.24 in6.2 miCalmMostly Cloudy
10:20 PM35.6 °F35.6 °F100 %30.24 in6.2 miWSW (240°)4.6 mphMostly Cloudy
10:50 PM35.6 °F35.6 °F100 %30.24 in6.2 miCalmMostly Cloudy
11:20 PM35.6 °F33.8 °F93 %30.24 in6.2 miCalmMostly Cloudy
11:50 PM35.6 °F35.6 °F100 %30.24 in6.2 miSSW (210°)1.2 mphMostly Cloudy
Hourly data recorded from LTCP, located miles away from Adiyaman, Turkey







STORIES FROM OUR PARTNERS